This demonstration page uses our WeatherBlox Daily Observations layout. Learn more.

Left ArrowRight Arrow

Hourly Observations for September 1, 2017

Temp ( °F °C ) Dew Point ( °F °C ) Humidity (%) Winds ( mph kmh ) Pressure ( in mb ) Visibility ( mi km ) Precip ( " mm )
12:15 am 00:15 Mostly Cloudy 70 21 63 17 78 78 NNE 5 7 30.06 1018 10 16 0.00 0.00
12:35 am 00:35 Mostly Cloudy 70 21 63 17 78 78 NE 5 7 30.06 1018 10 16 0.00 0.00
12:55 am 00:55 Cloudy 70 21 63 17 78 78 NE 7 11 30.06 1018 10 16 0.00 0.00
1:15 am 01:15 Mostly Cloudy 68 20 63 17 83 83 NNE 7 11 30.06 1018 10 16 0.00 0.00
1:35 am 01:35 Cloudy 68 20 63 17 83 83 NNE 7 11 30.06 1018 10 16 0.00 0.00
1:55 am 01:55 Partly Cloudy 68 20 63 17 83 83 NE 8 13 30.06 1018 10 16 0.00 0.00
2:15 am 02:15 Clear 68 20 63 17 83 83 NE 7 11 30.06 1018 10 16 0.00 0.00
2:35 am 02:35 Clear 68 20 63 17 83 83 NNE 6 9 30.06 1018 10 16 0.00 0.00
2:55 am 02:55 Clear 68 20 61 16 78 78 NNE 6 9 30.09 1019 10 16 0.00 0.00
3:15 am 03:15 Mostly Cloudy 66 19 61 16 83 83 NNE 7 11 30.09 1019 10 16 0.00 0.00
3:35 am 03:35 Cloudy 66 19 61 16 83 83 NE 8 13 30.09 1019 10 16 0.00 0.00
3:55 am 03:55 Cloudy 66 19 59 15 78 78 NE 8 13 30.09 1019 10 16 0.00 0.00
4:15 am 04:15 Cloudy 64 18 57 14 78 78 NNE 8 13 30.09 1019 10 16 0.00 0.00
4:35 am 04:35 Cloudy 64 18 57 14 78 78 NNE 7 11 30.12 1020 10 16 0.00 0.00
4:55 am 04:55 Cloudy 64 18 55 13 73 73 NE 12 19 30.12 1020 10 16 0.00 0.00
5:15 am 05:15 Cloudy 63 17 54 12 73 73 NNE 9 15 30.12 1020 10 16 0.00 0.00
5:35 am 05:35 Cloudy 63 17 54 12 73 73 NNE 10 17 30.12 1020 10 16 0.00 0.00
5:55 am 05:55 Mostly Cloudy 63 17 52 11 68 68 NE 10 17 30.12 1020 10 16 0.00 0.00
6:15 am 06:15 Partly Cloudy 63 17 54 12 73 73 NNE 7 11 30.15 1021 10 16 0.00 0.00
6:35 am 06:35 Clear 61 16 54 12 77 77 NE 9 15 30.15 1021 10 16 0.00 0.00
6:55 am 06:55 Sunny 61 16 54 12 77 77 NNE 6 9 30.15 1021 10 16 0.00 0.00
7:15 am 07:15 Sunny 61 16 54 12 77 77 NE 12 19 30.15 1021 10 16 0.00 0.00
7:35 am 07:35 Partly Cloudy 61 16 52 11 72 72 NNE 6 9 30.18 1022 10 16 0.00 0.00
7:55 am 07:55 Cloudy 61 16 54 12 77 77 NNE 9 15 30.18 1022 10 16 0.00 0.00
8:15 am 08:15 Cloudy 61 16 54 12 77 77 NE 8 13 30.18 1022 10 16 0.00 0.00
8:35 am 08:35 Cloudy 61 16 54 12 77 77 NE 6 9 30.21 1023 10 16 0.00 0.00
8:55 am 08:55 Mostly Cloudy 61 16 54 12 77 77 NE 7 11 30.21 1023 10 16 0.00 0.00
9:15 am 09:15 Sunny 61 16 54 12 77 77 NE 8 13 30.21 1023 10 16 0.00 0.00
9:35 am 09:35 Sunny 61 16 52 11 72 72 NNE 8 13 30.21 1023 10 16 0.00 0.00
9:55 am 09:55 Sunny 61 16 52 11 72 72 NNE 7 11 30.21 1023 10 16 0.00 0.00
10:15 am 10:15 Partly Cloudy 61 16 52 11 72 72 NNE 8 13 30.21 1023 10 16 0.00 0.00
10:35 am 10:35 Sunny 61 16 52 11 72 72 NNE 7 11 30.21 1023 10 16 0.00 0.00
10:55 am 10:55 Sunny 61 16 52 11 72 72 NNE 6 9 30.21 1023 10 16 0.00 0.00
11:15 am 11:15 Partly Cloudy 61 16 52 11 72 72 NNE 3 6 30.24 1024 10 16 0.00 0.00
11:35 am 11:35 Sunny 61 16 52 11 72 72 NE 7 11 30.21 1023 10 16 0.00 0.00
11:55 am 11:55 Sunny 61 16 52 11 72 72 NE 5 7 30.21 1023 10 16 0.00 0.00
12:15 pm 12:15 Sunny 61 16 52 11 72 72 NE 7 11 30.21 1023 10 16 0.00 0.00
12:35 pm 12:35 Partly Cloudy 63 17 52 11 68 68 NE 9 15 30.21 1023 10 16 0.00 0.00
12:55 pm 12:55 Sunny 63 17 52 11 68 68 N 7 11 30.21 1023 10 16 0.00 0.00
1:15 pm 13:15 Sunny 63 17 52 11 68 68 N 5 7 30.21 1023 10 16 0.00 0.00
1:35 pm 13:35 Partly Cloudy 63 17 50 10 64 64 N 3 6 30.21 1023 10 16 0.00 0.00
1:55 pm 13:55 Sunny 63 17 50 10 64 64 NE 3 6 30.21 1023 10 16 0.00 0.00
2:15 pm 14:15 Partly Cloudy 63 17 50 10 64 64 NE 7 11 30.18 1022 10 16 0.00 0.00
2:35 pm 14:35 Sunny 63 17 50 10 64 64 NE 5 7 30.15 1021 10 16 0.00 0.00
2:55 pm 14:55 Sunny 63 17 50 10 64 64 NE 6 9 30.15 1021 10 16 0.00 0.00
3:15 pm 15:15 Sunny 63 17 50 10 64 64 NE 6 9 30.15 1021 10 16 0.00 0.00
3:35 pm 15:35 Sunny 63 17 50 10 64 64 NE 3 6 30.15 1021 10 16 0.00 0.00
3:55 pm 15:55 Partly Cloudy 63 17 50 10 64 64 NE 3 6 30.18 1022 10 16 0.00 0.00
4:15 pm 16:15 Partly Cloudy 63 17 50 10 64 64 NE 7 11 30.18 1022 10 16 0.00 0.00
4:35 pm 16:35 Sunny 63 17 50 10 64 64 NNE 5 7 30.15 1021 10 16 0.00 0.00
4:55 pm 16:55 Partly Cloudy 63 17 50 10 64 64 Calm 30.15 1021 10 16 0.00 0.00
5:15 pm 17:15 Partly Cloudy 63 17 52 11 68 68 ENE 6 9 30.15 1021 10 16 0.00 0.00
5:35 pm 17:35 Mostly Cloudy 63 17 50 10 64 64 NE 6 9 30.15 1021 10 16 0.00 0.00
5:55 pm 17:55 Mostly Cloudy 63 17 50 10 64 64 ENE 6 9 30.15 1021 10 16 0.00 0.00
6:15 pm 18:15 Partly Cloudy 63 17 50 10 64 64 NE 7 11 30.15 1021 10 16 0.00 0.00
6:35 pm 18:35 Partly Cloudy 63 17 50 10 64 64 Calm 30.15 1021 10 16 0.00 0.00
6:55 pm 18:55 Partly Cloudy 63 17 50 10 64 64 Calm 30.15 1021 10 16 0.00 0.00
7:15 pm 19:15 Mostly Cloudy 63 17 52 11 68 68 Calm 30.18 1022 10 16 0.00 0.00
7:35 pm 19:35 Cloudy 63 17 52 11 68 68 Calm 30.21 1023 10 16 0.00 0.00
7:55 pm 19:55 Cloudy 63 17 52 11 68 68 NNE 5 7 30.21 1023 10 16 0.00 0.00
8:15 pm 20:15 Cloudy 63 17 52 11 68 68 NE 3 6 30.21 1023 10 16 0.00 0.00
8:35 pm 20:35 Cloudy 63 17 52 11 68 68 Calm 30.21 1023 10 16 0.00 0.00
8:55 pm 20:55 Cloudy 61 16 52 11 72 72 NE 3 6 30.21 1023 10 16 0.00 0.00
9:15 pm 21:15 Mostly Cloudy 61 16 54 12 77 77 NE 3 6 30.21 1023 10 16 0.00 0.00
9:35 pm 21:35 Mostly Cloudy with Light Rain 61 16 54 12 77 77 Calm 30.21 1023 10 16 0.00 0.00
9:55 pm 21:55 Mostly Cloudy with Light Rain 61 16 55 13 83 83 NE 3 6 30.18 1022 10 16 0.00 0.00
10:15 pm 22:15 Mostly Cloudy 61 16 55 13 83 83 Calm 30.21 1023 10 16 0.00 0.00
10:35 pm 22:35 Clear 61 16 55 13 83 83 Calm 30.18 1022 10 16 0.00 0.00
10:55 pm 22:55 Partly Cloudy 61 16 55 13 83 83 Calm 30.18 1022 10 16 0.00 0.00
11:15 pm 23:15 Partly Cloudy 59 15 55 13 88 88 Calm 30.18 1022 10 16 0.00 0.00
11:35 pm 23:35 Mostly Cloudy 59 15 55 13 88 88 Calm 30.18 1022 10 16 0.00 0.00
11:55 pm 23:55 Partly Cloudy 61 16 55 13 83 83 Calm 30.18 1022 10 16 0.00 0.00

Powered by AerisWeather